Location: ????????
(55.0808°N, 38.5463°E)
Time: 02:13:01
(UTC+00:00)

Nimbus 3 Rocket - Pass Details

Date: 28 September 2024
Orbit: 1072 x 1131 km, 99.9° (Epoch: 03 October)

Event Time Altitude Azimuth Distance (km) Brightness Sun altitude
Rises 19:45:22 0° 24° (NNE) 3,897 8.6 -34.2°
Reaches altitude 10° 19:49:01 10° 44° (NE) 2,928 7.7 -34.5°
Enters shadow 19:50:52 15° 60° (ENE) 2,593 7.2 -34.6°
